Regional Weather Roundup
Issued by NWS

Home | Current Version | Previous Version | Graphics & Text | Print | Product List | Glossary On
Versions: 1 2 3 4 5 6 7 8 9 10 11 12 13 14 15 16 17 18 19 20 21 22 23 24 25 26 27 28 29 30 31 32 33 34 35 36 37 38 39 40 41 42 43 44 45 46 47 48 49 50
000
ASUS43 KDTX 260101
RWRMI
MICHIGAN HOURLY REGIONAL WEATHER ROUNDUP
NATIONAL WEATHER SERVICE DETROIT/PONTIAC MI
900 PM EDT MON MAY 25 2015

NOTE: "FAIR" INDICATES FEW OR NO CLOUDS BELOW 12,000 FEET WITH NO
SIGNIFICANT WEATHER AND/OR OBSTRUCTION TO VISIBILITY.

MIZ047>049-052>055-059>063-066>070-074>076-081>083-260200-
SOUTHEAST LOWER MICHIGAN

CITY           SKY/WX    TMP DP  RH WIND       PRES   REMARKS
ADRIAN         MOCLDY    76  62  62 SW15      29.99R
ALMA           MOCLDY    71  62  74 SW7       29.93R
ANN ARBOR      MOCLDY    75  62  64 SW12      29.97R
BAD AXE        MOCLDY    71  63  75 SW9G17    29.91R
CARO           MOCLDY    71  64  77 SW8       29.92R
DETROIT CITY   PTCLDY    77  59  53 SW20G28   29.95R
DETROIT        MOCLDY    78  61  55 S13G22    29.97R
FLINT          MOCLDY    73  65  75 W10       29.95R
GROSSE ILE     PTCLDY    75  63  64 SW8       29.96S
HILLSDALE      MOCLDY    75  61  61 SW7       29.99S
HOWELL         MOCLDY    73  65  76 W7        29.96S

CITY           SKY/WX    TMP DP  RH WIND       PRES   REMARKS
JACKSON        MOCLDY    74  57  55 SW9       29.97R
LAMBERTVILLE   MOCLDY    79  59  50 SW9       30.00R
LANSING        MOCLDY    71  59  65 SW9       29.96R
LAPEER         NOT AVBL
MASON          MOCLDY    71  62  73 CALM      29.96S
MONROE         PTCLDY    77  61  57 SW9       29.97R
MT. CLEMENS    PTCLDY    78  61  56 SW20G26   29.93R
PONTIAC        MOCLDY    77  59  53 SW12G20   29.94R
PORT HOPE        N/A    N/A N/A N/A SW8G17    29.87R
PORT HURON     CLOUDY    72  64  78 CALM      29.95R
TRI CITIES     MOCLDY    74  61  63 SW10      29.91S
MIDLAND        FAIR      72  60  65 SW5       29.90R
TROY           PTCLDY    78  60  52 SW16G22   29.97R
SAGINAW HB     MOCLDY    72  61  68 SW12G17   29.91R
$$
MIZ043>046-050>051-056>058-064>065-071>073-077>080-260200-
SOUTHWEST LOWER MICHIGAN

CITY           SKY/WX    TMP DP  RH WIND       PRES   REMARKS
BATTLE CREEK   MOCLDY    72  61  68 S3        29.96S
BENTON HARBOR  CLOUDY    72  58  61 SW9       29.94R
BIG RAPIDS     MOCLDY    69  59  70 SW9       29.90R
COLDWATER      MOCLDY    73  56  56 SW3       29.97S
FREMONT        FAIR      69  59  71 SW12      29.90S
HOLLAND        MOCLDY    72  58  61 SW10G22   29.93S
GRAND RAPIDS   CLOUDY    73  60  63 SW12      29.93S
IONIA          FAIR      71  60  69 SW8       29.93S
KALAMAZOO      CLOUDY    72  60  66 SW3       29.96R
LUDINGTON      PTCLDY    71  62  72 SW15G22   29.86F
MARSHALL       MOCLDY    71  63  74 CALM      29.96S
MOUNT PLEASANT MOCLDY    71  60  68 SW12      29.91R
MUSKEGON       MOCLDY    68  54  60 SW17G23   29.91S
SOUTH HAVEN    CLOUDY    73  57  58 SW7       29.94R
$$
MIZ016>042-260200-
NORTHERN LOWER MICHIGAN

CITY           SKY/WX    TMP DP  RH WIND       PRES   REMARKS
ALPENA         MOCLDY    72  62  71 SW9G17    29.82R
BEAVER ISLAND  CLEAR     63  58  83 SW15G21   29.78R
BELLAIRE       PTCLDY    71  61  70 CALM      29.82S
CADILLAC       PTCLDY    69  61  76 SW9       29.88S
CHARLEVOIX     PTCLDY    69  61  77 SW8       29.82F
FRANKFORT      PTCLDY    68  55  61 S13G20    29.83S
GAYLORD        PTCLDY    68  63  84 SW14      29.84R
HARBOR SPRINGS PTCLDY    62  58  87 CALM      29.80S
HOUGHTON LAKE  MOCLDY    69  60  73 SW14G24   29.88R
MANISTEE       PTCLDY    70  57  64 S7        29.86S
OSCODA         MOCLDY    73  60  63 SW16G23   29.84R
PELLSTON       PTCLDY    68  61  78 SW9G17    29.80R
ROGERS CITY    MOCLDY    70  64  81 SW6       29.81R
TRAVERSE CITY  MOCLDY    73  61  65 SW9       29.81R
$$
MIZ007>008-015-260200-
EASTERN UPPER MICHIGAN

CITY           SKY/WX    TMP DP  RH WIND       PRES   REMARKS
KINROSS        CLOUDY    59  59 100 SW8       29.78R
MACKINAC ISLAN CLOUDY    58  58  99 SW7       29.78S
NEWBERRY       CLOUDY    58  57  99 S7G16     29.75F FOG
S. S. MARIE    CLOUDY    62  59  90 SW9       29.76R
$$
MIZ004>006-011>014-085-260200-
CENTRAL UPPER MICHIGAN

CITY           SKY/WX    TMP DP  RH WIND       PRES   REMARKS
MANISTIQUE     PTCLDY    47  45  95 S9        29.76R
ESCANABA       CLEAR     63  55  77 S6        29.75R
MENOMINEE      MOCLDY    73  57  56 SW3       29.76R
SAWYER-GWINN   PTCLDY    68  61  77 SW10      29.74R
$$
MIZ001>003-009>011-084-260200-
WESTERN UPPER MICHIGAN

CITY           SKY/WX    TMP DP  RH WIND       PRES   REMARKS
IRON MOUNTAIN  PTCLDY    68  58  70 SW8       29.76R
HOUGHTON       CLOUDY    57  55  93 W15       29.71R
COPPER HARBOR    N/A     44  42  93 CALM      29.70S
IRONWOOD       CLOUDY    61  59  94 CALM      29.70S
$$

ABBREVIATIONS USED IN REMARKS
   TC - TEMPERATURE IN CELSIUS
  WCI - WIND CHILL INDEX
   HX - HEAT INDEX
  VSB - VISIBILITY



USA.gov is the U.S. government's official web portal to all federal, state and local government web resources and services.